Starlink 31845

operational
NORAD ID: 60129 Int'l Des: 2024-118 Owner: SPXS Country: US Constellation: starlink
LEOCIRCULAR

About Starlink 31845

Description loading...

Live Position

Loading 3D Globe...

Upcoming Passes

Altitude History

Altitude vs Time

uPlot chart will show altitude changes over time

Two-Line Element Set

1 60129U 24118S 25351.30761986 -.00000945 00000-0 -19785-4 0 9994
2 60129 53.1608 47.2165 0000905 86.0970 274.0134 15.30199575 83111
Epoch: Dec 17, 2025 • Age: 10 hours

Current Status

Altitude 480.5 km
Velocity 7.63 km/s
Sub-Earth Point 50.26°N, 125.8°E
Launch Date Jun 24, 2024
Age 1.4 years
Type internet

Technical Details

Classification Payload
Mass 730.00 kg
Dry Mass 700.00 kg
Total Mass 730.00 kg
Length 0.30 m
Diameter 4.10 m
Span 29.00 m
Shape Box + pan
Manufacturer SPXS
Bus Type Starlink V2M
Phase Status In Orbit
Owner/State SPXS/US

Large Constellations

Loading constellations...